Tracking 25963 objects as of 13-Aug-2022
HD Live streaming from Space Station
objects crossing your sky now

STARLINK-4413

Track STARLINK-4413 now!
10-day predictions
STARLINK-4413 is classified as:


NORAD ID: 53207
Int'l Code: 2022-084U
Perigee: 419.1 km
Apogee: 421.6 km
Inclination: 97.7 °
Period: 92.8 minutes
Semi major axis: 6791 km
RCS: Unknown
Launch date: July 22, 2022
Source: United States (US)
Launch site: AIR FORCE WESTERN TEST RANGE (AFWTR)
aabbcc
Your satellite tracking list
Your tracking list is empty




NASA's NSSDC Master Catalog

Two Line Element Set (TLE):
1 53207U 22084U   22224.58334491  .00087578  00000-0  14844-2 0  9990
2 53207  97.6546 283.8343 0001838  99.1568  78.0881 15.51213968  1302
Source of the keplerian elements: AFSPC